FW0810 Weather Reports


time (UTC)temp
C
wind
direction
speed
KPH
gust
KPH
rain 1hr
cm
rain 24hr
cm
rain mn
cm
humidity
%
barometer
mb
20260901091921 29 287 0.0 6.4 0.00 0.00 0.00 60 1021.6
20260901090918 29 12 1.6 8.0 0.00 0.00 0.00 61 1021.7
20260901090418 29 359 0.0 8.0 0.00 0.00 0.00 61 1021.7
20260901085920 30 144 0.0 0.0 0.00 0.00 0.00 63 1021.6
20260901085419 29 145 0.0 0.0 0.00 0.00 0.00 65 1021.6
20260901084916 28 145 1.6 4.8 0.00 0.00 0.00 66 1021.6
20260901083916 28 137 0.0 6.4 0.00 0.00 0.00 65 1021.6
20260901082914 28 146 0.0 1.6 0.00 0.00 0.00 65 1021.5
20260901082410 28 147 0.0 1.6 0.00 0.00 0.00 65 1021.6
20260901081408 28 144 0.0 6.4 0.00 0.00 0.00 66 1021.5
20260901080909 27 143 1.6 6.4 0.00 0.00 0.00 66 1021.4
20260901080409 27 153 0.0 6.4 0.00 0.00 0.00 66 1021.5
20260901075906 27 162 0.0 4.8 0.00 0.00 0.00 66 1021.4
20260901075401 27 214 0.0 1.6 0.00 0.00 0.00 68 1021.4
20260901074855 27 217 0.0 1.6 0.00 0.00 0.00 68 1021.4
20260901074407 26 217 0.0 1.6 0.00 0.00 0.00 69 1021.4
20260901073855 26 220 0.0 1.6 0.00 0.00 0.00 70 1021.5
20260901073354 26 220 0.0 1.6 0.00 0.00 0.00 71 1021.4
20260901072852 26 223 0.0 0.0 0.00 0.00 0.00 71 1021.4
20260901071848 25 224 0.0 0.0 0.00 0.00 0.00 73 1021.3
20260901071347 25 224 0.0 0.0 0.00 0.00 0.00 73 1021.3
20260901070845 24 229 0.0 0.0 0.00 0.00 0.00 75 1021.3
20260901065342 23 229 0.0 1.6 0.00 0.00 0.00 77 1021.2
20260901063836 22 277 0.0 0.0 0.00 0.00 0.00 82 1021.4
20260901062836 21 278 0.0 0.0 0.00 0.00 0.00 85 1021.4
20260901062334 21 278 0.0 0.0 0.00 0.00 0.00 85 1021.4
20260901061836 20 278 0.0 0.0 0.00 0.00 0.00 85 1021.4
20260901061333 20 278 0.0 0.0 0.00 0.00 0.00 86 1021.3
20260901060833 20 278 0.0 0.0 0.00 0.00 0.00 86 1021.4
20260901060332 20 278 0.0 0.0 0.00 0.00 0.00 87 1021.4
20260901055833 20 278 0.0 1.6 0.00 0.00 0.00 87 1021.3
20260901054328 19 279 0.0 0.0 0.00 0.00 0.00 88 1021.3
20260901053828 19 279 0.0 0.0 0.00 0.00 0.00 89 1021.3
20260901053331 18 269 0.0 3.2 0.00 0.00 0.00 89 1021.3
20260901052827 18 269 0.0 3.2 0.00 0.00 0.00 89 1021.2
20260901052330 18 266 0.0 1.6 0.00 0.00 0.00 89 1021.2
20260901051828 18 263 0.0 0.0 0.00 0.00 0.00 89 1021.2
20260901051330 18 263 0.0 1.6 0.00 0.00 0.00 89 1021.2
20260901050828 18 263 0.0 1.6 0.00 0.00 0.00 89 1021.2
20260901050328 17 276 0.0 0.0 0.00 0.00 0.00 89 1021.1
20260901045823 17 276 0.0 0.0 0.00 0.00 0.00 89 1021.1
20260901045324 17 278 0.0 4.8 0.00 0.00 0.00 89 1021.1
20260901044822 17 278 0.0 6.4 0.00 0.00 0.00 89 1021.1
20260901044321 17 274 0.0 6.4 0.00 0.00 0.00 89 1021.1
20260901043825 18 272 0.0 0.0 0.00 0.00 0.00 89 1021.0
20260901042822 18 272 0.0 0.0 0.00 0.00 0.00 88 1021.0
20260901041825 18 274 0.0 0.0 0.00 0.00 0.00 88 1021.2
20260901041320 18 274 0.0 0.0 0.00 0.00 0.00 88 1021.1
20260901040318 18 274 0.0 0.0 0.00 0.00 0.00 88 1021.1
20260901035818 18 274 0.0 0.0 0.00 0.00 0.00 88 1021.2
20260901035319 18 275 0.0 0.0 0.00 0.00 0.00 88 1021.1
20260901034319 18 274 0.0 0.0 0.00 0.00 0.00 88 1021.1
20260901033819 18 274 0.0 3.2 0.00 0.00 0.00 88 1021.1
20260901033320 18 275 0.0 3.2 0.00 0.00 0.00 88 1021.1
20260901032818 18 271 0.0 3.2 0.00 0.00 0.00 88 1021.1
20260901032318 18 270 0.0 6.4 0.00 0.00 0.00 88 1021.1
20260901031818 18 271 0.0 6.4 0.00 0.00 0.00 87 1021.1
20260901031319 18 270 0.0 0.0 0.00 0.00 0.00 87 1021.1
20260901030818 18 260 0.0 0.0 0.00 0.00 0.00 87 1021.0
20260901030331 18 259 0.0 0.0 0.00 0.00 0.00 87 1021.0
20260901025817 18 259 0.0 0.0 0.00 0.00 0.00 87 1021.0
20260901025317 18 259 0.0 0.0 0.00 0.00 0.00 87 1021.1
20260901024818 18 259 0.0 0.0 0.00 0.00 0.00 87 1021.1
20260901024311 18 265 0.0 4.8 0.00 0.00 0.00 86 1021.0
20260901023806 18 265 0.0 4.8 0.00 0.00 0.00 86 1021.1
20260901023259 18 275 0.0 4.8 0.00 0.00 0.00 85 1021.1
20260901022753 18 273 0.0 1.6 0.00 0.00 0.00 85 1021.0
20260901021742 18 270 0.0 0.0 0.00 0.00 0.00 85 1021.1
20260901021234 19 270 0.0 0.0 0.00 0.00 0.00 85 1021.0
20260901020729 19 270 0.0 0.0 0.00 0.00 0.00 85 1021.1
20260901020223 19 271 0.0 0.0 0.00 0.00 0.00 85 1021.0
20260901015721 19 271 0.0 0.0 0.00 0.00 0.00 85 1020.9
20260901015211 19 271 0.0 0.0 0.00 0.00 0.00 85 1020.9
20260901014705 19 271 0.0 3.2 0.00 0.00 0.00 84 1021.0
20260901014159 19 271 0.0 3.2 0.00 0.00 0.00 84 1020.9
20260901013655 19 274 0.0 0.0 0.00 0.00 0.00 83 1020.9
20260901013153 19 274 0.0 0.0 0.00 0.00 0.00 84 1020.8
20260901012652 19 274 0.0 0.0 0.00 0.00 0.00 84 1020.9
20260901012151 19 275 0.0 0.0 0.00 0.00 0.00 83 1020.9
20260901011652 20 275 0.0 3.2 0.00 0.00 0.00 83 1020.8
20260901011150 20 275 0.0 4.8 0.00 0.00 0.00 82 1020.9
20260901010648 20 276 0.0 4.8 0.00 0.00 0.00 82 1020.8
20260901010145 20 276 0.0 3.2 0.00 0.00 0.00 81 1020.8
20260901005646 20 267 0.0 0.0 0.00 0.00 0.00 81 1020.8
20260901005144 20 266 0.0 0.0 0.00 0.00 0.00 80 1020.8
20260901004643 20 263 0.0 0.0 0.00 0.00 0.00 80 1020.8
20260901004142 20 263 0.0 0.0 0.00 0.00 0.00 80 1020.8
20260901003644 20 263 0.0 6.4 0.00 0.00 0.00 80 1020.8
20260901003140 21 263 0.0 6.4 0.00 0.00 0.00 79 1020.8
20260901002639 21 274 0.0 1.6 0.00 0.00 0.00 79 1020.8
20260901002136 21 276 0.0 0.0 0.00 0.00 0.00 79 1020.8
20260901001633 21 276 0.0 0.0 0.00 0.00 0.00 79 1020.8
20260901000631 21 276 0.0 3.2 0.00 0.00 0.00 79 1020.7
20260901000130 21 276 0.0 3.2 0.00 0.00 0.00 79 1020.8
20260831235626 21 272 0.0 3.2 0.00 0.00 0.00 78 1020.8
20260831235121 21 271 0.0 0.0 0.00 0.00 0.00 78 1020.7
20260831234614 21 272 0.0 1.6 0.00 0.00 0.00 78 1020.9
20260831234108 21 273 0.0 4.8 0.00 0.00 0.00 78 1020.9
20260831233601 21 283 0.0 4.8 0.00 0.00 0.00 78 1020.7
20260831233058 21 278 0.0 0.0 0.00 0.00 0.00 78 1020.8
20260831232057 21 279 0.0 4.8 0.00 0.00 0.00 77 1020.8
20260831231555 21 273 0.0 0.0 0.00 0.00 0.00 77 1020.7
20260831231107 21 273 0.0 0.0 0.00 0.00 0.00 77 1020.8
20260831225548 21 273 0.0 0.0 0.00 0.00 0.00 76 1020.7
20260831224548 22 274 0.0 4.8 0.00 0.00 0.00 76 1020.8
20260831223547 22 274 0.0 4.8 0.00 0.00 0.00 74 1020.7
20260831223046 22 277 0.0 0.0 0.00 0.00 0.00 74 1020.6
20260831222044 22 280 0.0 3.2 0.00 0.00 0.00 73 1020.6
20260831221540 22 271 0.0 3.2 0.00 0.00 0.00 72 1020.6
20260831221046 22 273 0.0 1.6 0.00 0.00 0.00 72 1020.7
20260831220541 23 271 0.0 3.2 0.00 0.00 0.00 72 1020.5
20260831214525 23 266 0.0 4.8 0.00 0.00 0.00 69 1020.3
20260831214019 23 267 0.0 4.8 0.00 0.00 0.00 68 1020.3
20260831213007 24 277 0.0 3.2 0.00 0.00 0.00 68 1020.3
20260831212501 24 276 0.0 3.2 0.00 0.00 0.00 68 1020.2
20260831212007 24 269 0.0 3.2 0.00 0.00 0.00 68 1020.2
20260831211449 24 268 0.0 4.8 0.00 0.00 0.00 68 1020.0
20260831210441 24 274 0.0 1.6 0.00 0.00 0.00 67 1020.2
20260831205931 25 278 0.0 1.6 0.00 0.00 0.00 66 1020.2
20260831205426 25 270 0.0 4.8 0.00 0.00 0.00 66 1019.9
20260831204924 25 272 0.0 4.8 0.00 0.00 0.00 65 1019.9
20260831204425 25 276 0.0 1.6 0.00 0.00 0.00 65 1019.8
20260831203925 25 274 0.0 1.6 0.00 0.00 0.00 65 1019.8
20260831203422 25 285 0.0 4.8 0.00 0.00 0.00 65 1019.7
20260831202923 25 280 0.0 4.8 0.00 0.00 0.00 65 1019.6
20260831202421 25 259 0.0 3.2 0.00 0.00 0.00 64 1019.5
20260831201919 25 259 0.0 3.2 0.00 0.00 0.00 64 1019.5
20260831201422 25 268 0.0 1.6 0.00 0.00 0.00 63 1019.5
20260831200419 26 268 0.0 1.6 0.00 0.00 0.00 61 1019.5
20260831195921 26 297 0.0 0.0 0.00 0.00 0.00 61 1019.5
20260831195418 26 314 0.0 0.0 0.00 0.00 0.00 60 1019.4
20260831194916 26 314 0.0 0.0 0.00 0.00 0.00 60 1019.3
20260831194414 26 314 0.0 0.0 0.00 0.00 0.00 60 1019.3
20260831193912 26 316 0.0 0.0 0.00 0.00 0.00 60 1019.3
20260831192921 27 314 0.0 0.0 0.00 0.00 0.00 59 1019.3
20260831192408 27 314 0.0 0.0 0.00 0.00 0.00 59 1019.1
20260831191905 27 314 0.0 0.0 0.00 0.00 0.00 58 1019.1
20260831191406 27 314 0.0 0.0 0.00 0.00 0.00 58 1019.0
20260831190904 27 314 0.0 0.0 0.00 0.00 0.00 57 1019.0
20260831190402 27 314 0.0 0.0 0.00 0.00 0.00 56 1019.0
20260831185859 27 314 0.0 0.0 0.00 0.00 0.00 56 1018.9
20260831185357 27 314 0.0 0.0 0.00 0.00 0.00 55 1018.9
20260831184855 27 319 0.0 0.0 0.00 0.00 0.00 55 1018.8
20260831184353 28 319 0.0 0.0 0.00 0.00 0.00 55 1018.7
20260831183852 28 320 0.0 0.0 0.00 0.00 0.00 54 1018.7
20260831183351 28 320 0.0 0.0 0.00 0.00 0.00 55 1018.6
20260831182349 28 320 0.0 0.0 0.00 0.00 0.00 54 1018.5
20260831181341 29 320 0.0 0.0 0.00 0.00 0.00 53 1018.4
20260831180841 29 320 0.0 0.0 0.00 0.00 0.00 52 1018.3
20260831180341 29 320 0.0 0.0 0.00 0.00 0.00 51 1018.2
20260831175840 29 320 0.0 0.0 0.00 0.00 0.00 51 1018.3
20260831174841 30 320 0.0 0.0 0.00 0.00 0.00 50 1018.1
20260831174339 30 320 0.0 0.0 0.00 0.00 0.00 49 1018.0
20260831173839 30 320 0.0 0.0 0.00 0.00 0.00 48 1018.0
20260831173343 31 320 0.0 0.0 0.00 0.00 0.00 48 1018.0
20260831172836 31 323 0.0 1.6 0.00 0.00 0.00 47 1018.0
20260831172330 31 324 0.0 3.2 0.00 0.00 0.00 47 1017.9
20260831171325 31 354 0.0 6.4 0.00 0.00 0.00 46 1017.9
20260831170326 32 261 0.0 4.8 0.00 0.00 0.00 46 1018.1
20260831165826 32 284 0.0 6.4 0.00 0.00 0.00 46 1018.0
20260831165325 32 293 0.0 6.4 0.00 0.00 0.00 45 1017.9
20260831164325 32 272 0.0 6.4 0.00 0.00 0.00 45 1017.9
20260831163825 33 332 0.0 4.8 0.00 0.00 0.00 45 1018.0
20260831163327 33 283 0.0 6.4 0.00 0.00 0.00 45 1018.0
20260831162825 33 293 0.0 8.0 0.00 0.00 0.00 45 1018.0
20260831162325 33 275 0.0 8.0 0.00 0.00 0.00 44 1018.0
20260831161825 33 312 0.0 6.4 0.00 0.00 0.00 45 1017.9
20260831161325 33 352 0.0 6.4 0.00 0.00 0.00 45 1018.0
20260831160830 33 264 0.0 9.7 0.00 0.00 0.00 46 1018.0
20260831160327 33 281 0.0 9.7 0.00 0.00 0.00 45 1017.9
20260831155824 33 304 0.0 6.4 0.00 0.00 0.00 45 1017.9
20260831155320 33 348 0.0 6.4 0.00 0.00 0.00 45 1018.1
20260831154813 33 344 0.0 14.5 0.00 0.00 0.00 44 1018.1
20260831153811 33 243 1.6 9.7 0.00 0.00 0.00 43 1018.1
20260831153311 33 294 1.6 9.7 0.00 0.00 0.00 42 1018.1
20260831152807 33 200 1.6 12.9 0.00 0.00 0.00 43 1018.1
20260831152307 33 13 0.0 12.9 0.00 0.00 0.00 42 1018.3
20260831151305 33 320 1.6 9.7 0.00 0.00 0.00 43 1018.3
20260831150805 33 274 1.6 9.7 0.00 0.00 0.00 43 1018.4
20260831150305 33 314 1.6 9.7 0.00 0.00 0.00 43 1018.3
20260831144805 33 258 0.0 9.7 0.00 0.00 0.00 43 1018.3
20260831144310 33 1 0.0 8.0 0.00 0.00 0.00 44 1018.4
20260831143305 33 283 1.6 11.3 0.00 0.00 0.00 46 1018.4
20260831142816 33 295 1.6 11.3 0.00 0.00 0.00 45 1018.4
20260831141804 33 269 3.2 12.9 0.00 0.00 0.00 45 1018.4
20260831141304 33 266 1.6 12.9 0.00 0.00 0.00 45 1018.4
20260831140303 33 287 3.2 14.5 0.00 0.00 0.00 45 1018.4
20260831135803 33 264 3.2 14.5 0.00 0.00 0.00 46 1018.5
20260831135306 33 258 1.6 12.9 0.00 0.00 0.00 46 1018.6
20260831134805 33 325 3.2 17.7 0.00 0.00 0.00 46 1018.7
20260831134301 33 256 3.2 17.7 0.00 0.00 0.00 45 1018.6
20260831133801 33 1 1.6 12.9 0.00 0.00 0.00 45 1018.7
20260831133257 33 222 1.6 9.7 0.00 0.00 0.00 47 1018.7
20260831132800 32 276 1.6 11.3 0.00 0.00 0.00 47 1018.7
20260831132258 33 194 3.2 16.1 0.00 0.00 0.00 46 1018.7
20260831131757 32 278 3.2 16.1 0.00 0.00 0.00 45 1018.8
20260831131257 33 317 1.6 11.3 0.00 0.00 0.00 45 1018.8
20260831130758 32 260 1.6 11.3 0.00 0.00 0.00 45 1018.9
20260831130259 32 257 3.2 16.1 0.00 0.00 0.00 45 1018.9
20260831125757 32 278 3.2 19.3 0.00 0.00 0.00 46 1018.9
20260831125258 32 328 3.2 19.3 0.00 0.00 0.00 45 1019.0
20260831124757 32 288 1.6 17.7 0.00 0.00 0.00 45 1018.9
20260831124259 32 238 1.6 17.7 0.00 0.00 0.00 45 1019.0
20260831123758 32 300 1.6 11.3 0.00 0.00 0.00 46 1019.0
20260831123258 32 281 1.6 6.4 0.00 0.00 0.00 45 1018.9
20260831122259 32 285 3.2 12.9 0.00 0.00 0.00 45 1019.0
20260831121757 32 247 3.2 19.3 0.00 0.00 0.00 46 1019.0
20260831121255 32 271 3.2 19.3 0.00 0.00 0.00 46 1019.1
20260831120756 32 226 1.6 12.9 0.00 0.00 0.00 48 1019.0
20260831115755 32 326 1.6 9.7 0.00 0.00 0.00 48 1019.0
20260831115253 32 304 1.6 9.7 0.00 0.00 0.00 47 1019.1
20260831114751 32 207 1.6 9.7 0.00 0.00 0.00 47 1019.0
20260831114251 31 1 1.6 11.3 0.00 0.00 0.00 47 1019.1
20260831113751 31 302 1.6 11.3 0.00 0.00 0.00 47 1019.1
20260831113249 31 248 1.6 8.0 0.00 0.00 0.00 46 1019.1
20260831112751 31 278 1.6 12.9 0.00 0.00 0.00 48 1019.1
20260831112249 31 229 1.6 12.9 0.00 0.00 0.00 47 1019.2
20260831111749 31 277 1.6 11.3 0.00 0.00 0.00 47 1019.2
20260831111248 31 276 3.2 11.3 0.00 0.00 0.00 47 1019.3
20260831110750 31 251 3.2 12.9 0.00 0.00 0.00 46 1019.3
20260831110251 31 283 1.6 12.9 0.00 0.00 0.00 44 1019.3
20260831105748 31 304 1.6 9.7 0.00 0.00 0.00 44 1019.3
20260831105247 30 273 1.6 12.9 0.00 0.00 0.00 44 1019.3
20260831104745 30 1 1.6 12.9 0.00 0.00 0.00 45 1019.4
20260831104246 30 253 1.6 11.3 0.00 0.00 0.00 47 1019.4
20260831103745 30 3 1.6 11.3 0.00 0.00 0.00 49 1019.4
20260831103241 30 324 1.6 8.0 0.00 0.00 0.00 51 1019.4
20260831102741 30 328 0.0 8.0 0.00 0.00 0.00 51 1019.4
20260831102241 30 309 1.6 11.3 0.00 0.00 0.00 53 1019.4
20260831101741 30 323 1.6 11.3 0.00 0.00 0.00 53 1019.6
20260831101240 29 275 0.0 9.7 0.00 0.00 0.00 57 1019.6
20260831100738 29 276 0.0 8.0 0.00 0.00 0.00 58 1019.5
20260831100238 29 276 1.6 14.5 0.00 0.00 0.00 59 1019.5
20260831095238 29 297 0.0 6.4 0.00 0.00 0.00 58 1019.6
20260831094736 29 316 1.6 8.0 0.00 0.00 0.00 57 1019.7
20260831093736 28 266 0.0 8.0 0.00 0.00 0.00 58 1019.7
20260831093234 28 288 1.6 11.3 0.00 0.00 0.00 58 1019.7